Change the Weather History Date:

Wednesday, December 4, 2013

  Actual Average Record
Temperature  
Mean Temperature 48 °F -  
Max Temperature 52 °F 46 °F 57 °F (2000)
Min Temperature 45 °F 40 °F 39 °F (1997)
Degree Days  
Heating Degree Days 16    
Moisture  
Dew Point 42 °F    
Average Humidity 79    
Maximum Humidity 94    
Minimum Humidity 62    
Precipitation  
Precipitation 0.00 in - - ()
Sea Level Pressure  
Sea Level Pressure 30.44 in    
Wind  
Wind Speed 6 mph ()    
Max Wind Speed 20 mph    
Max Gust Speed -    
Visibility 7.0 miles    
Events Rain    
Averages and records for this station are not official NWS values.
T = Trace of Precipitation, MM = Missing Value Source: Averaged Metar Reports

Daily Weather History Graph

Daily Weather History Graph

Search for Another Location

Airport or City:

Trip Planner

Search our weather history database for the weather conditions in past years. The results will help you decide how hot, cold, wet, or windy it might be!

Date:

Astronomy

Dec. 04, 2013 Rise Set
Actual Time 7:46 AM GMT 4:11 PM GMT
Civil Twilight 7:09 AM GMT 4:48 PM GMT
Nautical Twilight 6:28 AM GMT 5:28 PM GMT
Astronomical Twilight 5:50 AM GMT 6:07 PM GMT
Moon 8:57 AM GMT (12/4) 6:09 PM GMT (12/4)
Length of Visible Light 9h 39m
Length of Day
8h 25m
Waxing Crescent, 3% of the Moon is Illuminated
Dec 4
Waxing Crescent
Dec 9
First Quarter
Dec 17
Full
Dec 25
Last Quarter
Jan 1
New

Hourly Weather History & Observations

Time (GMT) Temp. Windchill Dew Point Humidity Pressure Visibility Wind Dir Wind Speed Gust Speed Precip Events Conditions
12:00 AM 47 °F - 40 °F 67% 30.40 in 16 mi North 5.8 mph - -   Overcast
3:00 AM 46 °F - 37 °F 62% 30.41 in 16 mi North 3.5 mph - -   Overcast
3:50 AM 44.6 °F - 39.2 °F 81% 30.39 in 6.2 mi Calm Calm - N/A   Mostly Cloudy
4:20 AM 44.6 °F - 37.4 °F 76% 30.39 in 6.2 mi Calm Calm - N/A   Mostly Cloudy
4:50 AM 44.6 °F - 37.4 °F 76% 30.39 in 6.2 mi Variable 2.3 mph - N/A   Mostly Cloudy
5:20 AM 44.6 °F - 37.4 °F 76% 30.39 in 6.2 mi West 1.2 mph - N/A   Mostly Cloudy
5:50 AM 44.6 °F 43.1 °F 39.2 °F 81% 30.39 in 6.2 mi SW 3.5 mph - N/A   Mostly Cloudy
6:00 AM 46 °F - 39 °F 68% 30.41 in 19 mi SW 2.3 mph - -   Overcast
6:20 AM 46.4 °F 45.2 °F 39.2 °F 76% 30.39 in 6.2 mi SW 3.5 mph - N/A   Mostly Cloudy
6:50 AM 46.4 °F 44.3 °F 39.2 °F 76% 30.39 in 6.2 mi WSW 4.6 mph - N/A   Overcast
7:20 AM 48.2 °F - 39.2 °F 71% 30.39 in 6.2 mi Variable 3.5 mph - N/A   Overcast
7:50 AM 48.2 °F - 39.2 °F 71% 30.42 in 6.2 mi Variable 1.2 mph - N/A   Mostly Cloudy
8:20 AM 48.2 °F - 41.0 °F 76% 30.42 in 6.2 mi Variable 2.3 mph - N/A   Mostly Cloudy
8:50 AM 48.2 °F - 41.0 °F 76% 30.42 in 6.2 mi NW 4.6 mph - N/A   Mostly Cloudy
9:00 AM 48 °F - 41 °F 70% 30.43 in 25 mi NW 3.5 mph - -   Mostly Cloudy
9:20 AM 48.2 °F - 41.0 °F 76% 30.42 in 6.2 mi NW 6.9 mph - N/A   Mostly Cloudy
9:50 AM 50.0 °F - 42.8 °F 76% 30.42 in 6.2 mi WNW 3.5 mph - N/A   Mostly Cloudy
10:20 AM 50.0 °F - 42.8 °F 76% 30.45 in 6.2 mi NW 4.6 mph - N/A   Mostly Cloudy
10:50 AM 51.8 °F - 42.8 °F 71% 30.45 in 6.2 mi WNW 4.6 mph - N/A   Mostly Cloudy
11:20 AM 51.8 °F - 44.6 °F 76% 30.42 in 6.2 mi WNW 5.8 mph - N/A   Mostly Cloudy
11:50 AM 51.8 °F - 44.6 °F 76% 30.45 in 6.2 mi NW 10.4 mph - N/A   Mostly Cloudy
12:00 PM 52 °F - 46 °F 71% 30.45 in 25 mi WNW 9.2 mph - -   Mostly Cloudy
12:20 PM 51.8 °F - 46.4 °F 82% 30.42 in 6.2 mi WNW 8.1 mph - N/A   Mostly Cloudy
12:50 PM 51.8 °F - 46.4 °F 82% 30.42 in 6.2 mi NW 8.1 mph - N/A   Mostly Cloudy
1:20 PM 51.8 °F - 46.4 °F 82% 30.42 in 6.2 mi WNW 11.5 mph - N/A   Mostly Cloudy
1:50 PM 51.8 °F - 46.4 °F 82% 30.42 in 6.2 mi WNW 13.8 mph - N/A   Mostly Cloudy
2:20 PM 51.8 °F - 46.4 °F 82% 30.42 in 6.2 mi NW 9.2 mph - N/A   Mostly Cloudy
2:50 PM 51.8 °F - 46.4 °F 82% 30.42 in 6.2 mi WNW 10.4 mph - N/A   Mostly Cloudy
3:00 PM 52 °F - 46 °F 75% 30.45 in 16 mi NW 10.4 mph - -   Mostly Cloudy
3:20 PM 51.8 °F - 46.4 °F 82% 30.45 in 6.2 mi WNW 9.2 mph - N/A   Mostly Cloudy
3:50 PM 50.0 °F - 46.4 °F 87% 30.45 in 6.2 mi NW 6.9 mph - N/A   Mostly Cloudy
4:20 PM 50.0 °F - 48.2 °F 94% 30.45 in 1.9 mi WNW 11.5 mph - N/A Rain Light Rain
4:50 PM 48.2 °F - 46.4 °F 93% 30.45 in 1.1 mi North 12.7 mph - N/A Rain Rain
5:20 PM 48.2 °F - 46.4 °F 93% 30.48 in 3.1 mi North 19.6 mph - N/A Rain Light Rain
5:50 PM 48.2 °F - 44.6 °F 87% 30.48 in 6.2 mi NNE 13.8 mph - N/A   Mostly Cloudy
6:00 PM 47 °F - 45 °F 89% 30.49 in 22 mi NNE 15.0 mph - - Rain Light Rain
6:20 PM 46.4 °F 39.2 °F 42.8 °F 87% 30.48 in 6.2 mi NNE 18.4 mph - N/A   Scattered Clouds
6:50 PM 46.4 °F 40.7 °F 41.0 °F 81% 30.48 in 6.2 mi NNE 12.7 mph - N/A   Partly Cloudy
7:20 PM 46.4 °F 42.4 °F 41.0 °F 81% 30.51 in 6.2 mi NNE 8.1 mph - N/A   Partly Cloudy
7:50 PM 46.4 °F 42.4 °F 41.0 °F 81% 30.51 in 6.2 mi North 8.1 mph - N/A   Scattered Clouds
8:20 PM 46.4 °F 40.4 °F 41.0 °F 81% 30.51 in 6.2 mi NNE 13.8 mph - N/A   Partly Cloudy
8:50 PM 46.4 °F 40.7 °F 41.0 °F 81% 30.51 in 6.2 mi NNE 12.7 mph - N/A   Partly Cloudy
9:00 PM 46 °F - 40 °F 72% 30.53 in 28 mi NNE 10.4 mph - -   Partly Cloudy